Weather in Viamão

Brazil     30°05′18″S   51°01′24″W
temp.,
°C
wind,
m/s
gust,
m/s
humid.,
%
clouds,
%
prec.,
mm/h
press.,
hPa
HPBL,
m
28 october, thu
thu2800:00+20ese26560 0.0 1021135
03:00+18ese26650 0.0 1021142
06:00+17e26735 0.0 1022160
09:00+24ene24500 0.0 1024523
12:00+30e34330 0.0 10221580
15:00+29ese66440 0.0 10201214
18:00+23ese714582 0.0 1020630
21:00+21e612641 0.0 1021514
29 october, fri
fri2900:00+19e49765 0.0 1021394
03:00+18e388472 0.0 1020326
06:00+18e268616 0.0 1021255
09:00+23e456340 0.0 1021667
12:00+26e555763 0.0 1020990
15:00+27e675114 0.0 10171312
18:00+23e610650 0.1 1017720
21:00+20e59760 0.1 1018453
30 october, sat
sat3000:00+19e48830 0.0 1017371
03:00+18e268454 0.0 1016264
06:00+17e278710 0.0 1017218
09:00+24e345863 0.0 1018752
12:00+29e344428 0.0 10161686
15:00+26e465463 0.0 1014916
18:00+25e47620 0.1 1014713
21:00+20e48790 0.1 1016277
31 october, sun
sun3100:00+19e36870 0.0 1016230
03:00+18e24904 0.0 1016140
06:00+18e13893 0.0 1017102
09:00+25ene24590 0.0 1017732
12:00+29e32425 0.0 10151767
15:00+29e544966 0.0 10131198
18:00+24ese46680 0.0 1014489
21:00+21e37810 0.1 1015260
1 november, mon
mon100:00+20e25872 0.0 1015167
03:00+19e23907 0.0 1014127
06:00+19ne118788 0.0 101565
09:00+25nne1158100 0.0 1016632
12:00+30e224098 0.0 10131543
15:00+31se4340100 0.0 10112060
18:00+25ese4765100 0.0 1011440
21:00+22e3678100 0.0 1012253